Regional Weather Roundup
Issued by NWS

Home | Current Version | Previous Version | Graphics & Text | Print | Product List | Glossary On
Versions: 1 2 3 4 5 6 7 8 9 10 11 12 13 14 15 16 17 18 19 20 21 22 23 24 25 26 27 28 29 30 31 32 33 34 35 36 37 38 39 40 41 42 43 44 45 46 47 48 49 50
000
ASUS43 KLMK 292310
RWRKY
KENTUCKY REGIONAL WEATHER ROUNDUP
NATIONAL WEATHER SERVICE LOUISVILLE KY
700 PM EDT TUE JUL 29 2014

NOTE "FAIR" INDICATES FEW OR NO CLOUDS BELOW 12,000 FEET
WITH NO SIGNIFICANT WEATHER AND/OR OBSTRUCTIONS TO VISIBILITY.

KYZ001>023-026-027-061>063-070>075-300000-
WESTERN AND SOUTH CENTRAL KENTUCKY

CITY           SKY/WX    TMP DP  RH WIND       PRES   REMARKS
PADUCAH        MOSUNNY   79  54  41 NW7       30.09F
HENDERSON      SUNNY     77  55  47 W8        30.07F
OWENSBORO      MOSUNNY   77  55  46 NW12      30.07F
HOPKINSVILLE   PTSUNNY   79  51  37 N9        30.08F
BOWLING GREEN  CLOUDY    78  53  41 VRB3      30.08S
GLASGOW        MOSUNNY   74  54  49 NW7       30.08S
$$

KYZ024-025-028>034-038-045-046-053-300000-
NORTH CENTRAL KENTUCKY

CITY           SKY/WX    TMP DP  RH WIND       PRES   REMARKS
LOUISVILLE/SDF MOSUNNY   78  54  43 W9        30.05F
LOUISVILLE/LOU MOSUNNY   77  52  41 VRB5      30.06F
FORT KNOX      MOSUNNY   73  59  59 W7        30.06S
$$

KYZ035>037-039>044-047>052-055>060-089>105-300000-
NORTHEAST KENTUCKY

CITY           SKY/WX    TMP DP  RH WIND       PRES   REMARKS
LEXINGTON      SUNNY     73  52  47 NW8       30.07F
COVINGTON      MOSUNNY   72  53  51 W6        30.05F
FRANKFORT      MOSUNNY   73  52  47 NW7       30.06F
$$

KYZ054-064>069-076>088-106>120-300000-
SOUTHEAST KENTUCKY

CITY           SKY/WX    TMP DP  RH WIND       PRES   REMARKS
JACKSON        PTSUNNY   68  53  58 VRB3      30.08R
LONDON         SUNNY     71  52  50 VRB7      30.08S
SOMERSET       SUNNY     70  50  49 N9        30.09S
MIDDLESBORO    MOSUNNY   71  53  53 N5        30.08R
MONTICELLO     PTCLDY    73  56  55 N6        30.09F
$$



USA.gov is the U.S. government's official web portal to all federal, state and local government web resources and services.